Date String (YYYY-MM-DD hh:mm:ss) UTC,Instrument flags,absolute air pressure of the measurement (hPa),sample flow rate (lpm),inlet stack bypass flow (lpm),air temperature of the measurement (°C),ambient temperature measured by the external sensor (°C),aerosol sample conditioner tube jacket temperature (°C),OPC LED temperature (°C),internal box temperature (°C),relative humidity of the measurement (%),span deviation,mass concentration of particles derived from Lorenz-Mie calculation of OPC scattering (μg/m³),mass concentration of particles derived from Lorenz-Mie calculation of OPC scattering (μg/m³),mass concentration of particles derived from Lorenz-Mie calculation of OPC scattering (μg/m³)
DateTimeUTC,F1_M11,P_M11,Q1_M11,Q2_M11,T1_M11,T2_M11,T3_M11,T4_M11,T5_M11,U1_M11,ZSPAN_M11,X0_M11,X2_M11,X1_M11
2023-10-25 14:00:00,SystemResetWarning,0827.1,5.01,000.00,028.1,026.5,000.0,036.5,029.8,21.4,-002.8,0019.73,0010.23,0008.66
2023-10-25 14:01:00,SystemResetWarning,0827.1,5.00,000.00,028.1,026.5,000.0,036.5,029.8,21.4,-003.4,0018.81,0009.90,0008.56
2023-10-25 14:02:00,SystemResetWarning,0827.2,5.00,000.00,028.1,026.5,000.0,036.5,029.8,21.4,-003.2,0017.92,0009.64,0008.48
2023-10-25 14:03:00,SystemResetWarning,0827.1,5.00,000.00,028.1,026.5,000.0,036.5,029.7,21.4,-003.0,0016.06,0009.37,0008.41
2023-10-25 14:04:00,SystemResetWarning,0827.2,4.99,000.00,028.1,026.5,000.0,036.5,029.7,21.6,-002.8,0014.59,0009.08,0008.30
2023-10-25 14:05:00,SystemResetWarning,0827.1,5.00,000.00,028.1,026.5,000.0,036.5,029.8,21.8,-002.9,0014.55,0008.92,0008.24
2023-10-25 14:06:00,SystemResetWarning,0827.1,5.00,000.00,028.1,026.5,000.0,036.5,029.8,21.7,-003.0,0014.34,0008.96,0008.26
2023-10-25 14:07:00,SystemResetWarning,0827.1,5.00,000.00,028.1,026.5,000.0,036.5,029.8,21.6,-002.6,0014.47,0008.94,0008.27
2023-10-25 14:08:00,SystemResetWarning,0827.2,5.00,000.00,028.1,026.5,000.0,036.5,029.8,21.7,-002.3,0014.59,0008.86,0008.24
2023-10-25 14:09:00,SystemResetWarning,0827.1,5.00,000.00,028.1,026.5,000.0,036.5,029.8,21.7,-002.0,0014.55,0008.82,0008.23
2023-10-25 14:10:00,SystemResetWarning,0827.2,5.00,000.00,028.1,026.5,000.0,036.5,029.8,21.7,-001.1,0014.40,0008.78,0008.22
2023-10-25 14:11:00,SystemResetWarning,0827.2,5.01,000.00,028.1,026.5,000.0,036.5,029.8,21.6,-001.1,0014.40,0008.78,0008.22
2023-10-25 14:12:00,SystemResetWarning,0827.2,5.00,000.00,028.1,026.5,000.0,036.5,029.8,21.5,-001.1,0014.67,0008.85,0008.23
2023-10-25 14:13:00,SystemResetWarning,0827.3,5.00,000.00,028.1,026.5,000.0,036.5,029.8,21.6,-001.0,0015.96,0008.89,0008.22
2023-10-25 14:14:00,SystemResetWarning,0827.2,5.01,000.00,028.1,026.5,000.0,036.5,029.8,21.6,-001.2,0016.21,0008.87,0008.21
2023-10-25 14:15:00,SystemResetWarning,0827.2,5.00,000.00,028.1,026.5,000.0,036.5,029.8,21.7,-001.0,0016.78,0008.87,0008.21
2023-10-25 14:16:00,SystemResetWarning,0827.2,5.00,000.00,028.1,026.5,000.0,036.5,029.7,21.8,-000.4,0016.90,0008.86,0008.19
2023-10-25 14:17:00,SystemResetWarning,0827.2,5.00,000.00,028.1,026.5,000.0,036.5,029.7,21.8,-000.1,0016.56,0008.78,0008.14
2023-10-25 14:18:00,SystemResetWarning,0827.2,4.99,000.00,028.1,026.5,000.0,036.5,029.8,21.7,-000.2,0015.93,0008.72,0008.09
2023-10-25 14:19:00,SystemResetWarning,0827.2,5.00,000.00,028.1,026.5,000.0,036.5,029.8,21.8,-000.5,0016.07,0008.69,0008.05
2023-10-25 14:20:00,SystemResetWarning,0827.2,5.00,000.00,028.1,026.5,000.0,036.5,029.8,21.8,-001.1,0016.33,0008.64,0008.01
2023-10-25 14:21:00,SystemResetWarning,0827.2,5.00,000.00,028.1,026.5,000.0,036.5,029.8,21.8,-001.2,0016.38,0008.59,0007.98
2023-10-25 14:22:00,SystemResetWarning,0827.2,5.00,000.00,028.1,026.5,000.0,036.5,029.8,21.9,-001.0,0017.10,0008.54,0007.95
2023-10-25 14:23:00,SystemResetWarning,0827.3,5.00,000.00,028.1,026.5,000.0,036.5,029.8,21.9,-000.8,0016.68,0008.44,0007.91
2023-10-25 14:24:00,SystemResetWarning,0827.3,5.01,000.00,028.1,026.5,000.0,036.5,029.7,21.9,-000.7,0015.26,0008.34,0007.86
2023-10-25 14:25:00,SystemResetWarning,0827.3,5.00,000.00,028.1,026.5,000.0,036.5,029.7,21.8,-000.3,0014.64,0008.28,0007.82
2023-10-25 14:26:00,SystemResetWarning,0827.3,5.01,000.00,028.1,026.5,000.0,036.5,029.7,21.8,0000.3,0013.88,0008.23,0007.77
2023-10-25 14:27:00,SystemResetWarning,0827.3,5.01,000.00,028.0,026.5,000.0,036.5,029.7,21.8,-000.6,0013.07,0008.20,0007.74
2023-10-25 14:28:00,SystemResetWarning,0827.3,4.99,000.00,028.0,026.5,000.0,036.5,029.7,21.9,-000.9,0013.01,0008.15,0007.72
2023-10-25 14:29:00,SystemResetWarning,0827.3,4.98,000.00,028.0,026.5,000.0,036.5,029.7,21.9,0000.0,0013.00,0008.11,0007.69
2023-10-25 14:30:00,SystemResetWarning,0827.4,5.00,000.00,028.0,026.5,000.0,036.5,029.7,21.9,0000.0,0012.62,0008.06,0007.68
2023-10-25 14:31:00,SystemResetWarning,0827.4,5.01,000.00,028.0,026.5,000.0,036.5,029.7,21.9,0000.0,0011.89,0008.07,0007.68
2023-10-25 14:32:00,SystemResetWarning,0827.4,5.01,000.00,028.0,026.5,000.0,036.5,029.7,21.9,0000.0,0012.23,0008.03,0007.67
2023-10-25 14:33:00,SystemResetWarning,0827.4,5.01,000.00,028.0,026.5,000.0,036.5,029.7,21.9,0000.0,0011.92,0007.98,0007.64
2023-10-25 14:34:00,SystemResetWarning,0827.4,5.00,000.00,028.0,026.5,000.0,036.5,029.7,22.3,0000.0,0012.16,0007.95,0007.62
2023-10-25 14:35:00,SystemResetWarning,0827.4,5.00,000.00,028.0,026.5,000.0,036.5,029.7,22.1,0000.0,0012.47,0007.96,0007.62
2023-10-25 14:36:00,SystemResetWarning,0827.4,4.99,000.00,028.0,026.5,000.0,036.5,029.7,22.0,0000.0,0012.55,0008.00,0007.65
2023-10-25 14:37:00,SystemResetWarning,0827.4,4.99,000.00,028.0,026.5,000.0,036.5,029.7,22.0,0000.0,0012.53,0008.03,0007.67
2023-10-25 14:38:00,SystemResetWarning,0827.4,5.00,000.00,028.0,026.5,000.0,036.5,029.7,21.9,0000.0,0012.44,0008.02,0007.67
2023-10-25 14:39:00,SystemResetWarning,0827.4,5.01,000.00,028.0,026.5,000.0,036.5,029.7,22.0,0000.0,0012.28,0008.03,0007.68
2023-10-25 14:40:00,SystemResetWarning,0827.4,5.00,000.00,028.0,026.4,000.0,036.5,029.7,22.0,0000.0,0012.20,0008.04,0007.69
2023-10-25 14:41:00,SystemResetWarning,0827.4,5.00,000.00,028.0,026.4,000.0,036.5,029.6,22.0,-000.2,0012.18,0008.07,0007.72
2023-10-25 14:42:00,SystemResetWarning,0827.4,5.00,000.00,028.0,026.4,000.0,036.4,029.7,22.1,-001.6,0012.85,0008.06,0007.71
2023-10-25 14:43:00,SystemResetWarning,0827.4,5.01,000.00,028.0,026.4,000.0,036.4,029.7,22.2,-000.0,0012.91,0008.10,0007.74
2023-10-25 14:44:00,SystemResetWarning,0827.4,5.01,000.00,028.0,026.4,000.0,036.4,029.7,22.2,-000.2,0012.93,0008.14,0007.77
2023-10-25 14:45:00,SystemResetWarning,0827.4,5.00,000.00,028.0,026.4,000.0,036.4,029.7,22.3,-000.2,0012.89,0008.17,0007.78
2023-10-25 14:46:00,SystemResetWarning,0827.4,4.99,000.00,028.0,026.4,000.0,036.4,029.7,22.3,0000.0,0012.54,0008.17,0007.79
2023-10-25 14:47:00,SystemResetWarning,0827.4,5.00,000.00,028.0,026.4,000.0,036.4,029.7,22.4,0000.0,0012.52,0008.14,0007.77
2023-10-25 14:48:00,SystemResetWarning,0827.4,4.99,000.00,028.0,026.4,000.0,036.4,029.7,22.5,0000.0,0012.59,0008.14,0007.75
2023-10-25 14:49:00,SystemResetWarning,0827.4,5.00,000.00,028.0,026.4,000.0,036.4,029.7,22.6,0000.0,0012.57,0008.14,0007.76
2023-10-25 14:50:00,SystemResetWarning,0827.4,5.00,000.00,028.0,026.4,000.0,036.4,029.7,22.6,0000.0,0012.79,0008.17,0007.79
2023-10-25 14:51:00,SystemResetWarning,0827.4,5.00,000.00,028.0,026.4,000.0,036.4,029.7,22.6,-002.3,0012.92,0008.19,0007.82
2023-10-25 14:52:00,SystemResetWarning,0827.4,5.00,000.00,028.0,026.4,000.0,036.4,029.7,22.5,-001.6,0012.98,0008.20,0007.83
2023-10-25 14:53:00,SystemResetWarning,0827.4,5.00,000.00,028.0,026.4,000.0,036.4,029.7,22.4,0000.0,0012.79,0008.25,0007.85
2023-10-25 14:54:00,SystemResetWarning,0827.4,5.00,000.00,028.0,026.4,000.0,036.4,029.7,22.5,0000.0,0013.27,0008.27,0007.87
2023-10-25 14:55:00,SystemResetWarning,0827.4,5.00,000.00,028.0,026.4,000.0,036.4,029.7,22.5,0000.0,0012.68,0008.25,0007.87
2023-10-25 14:56:00,SystemResetWarning,0827.4,5.00,000.00,028.0,026.4,000.0,036.4,029.7,22.6,0000.0,0012.89,0008.24,0007.86
2023-10-25 14:57:00,SystemResetWarning,0827.4,5.00,000.00,028.0,026.4,000.0,036.4,029.7,22.7,-002.6,0013.09,0008.25,0007.88
2023-10-25 14:58:00,SystemResetWarning,0827.4,5.00,000.00,028.0,026.4,000.0,036.4,029.7,22.8,-003.1,0013.23,0008.34,0007.92
2023-10-25 14:59:00,SystemResetWarning,0827.4,5.00,000.00,028.0,026.5,000.0,036.4,029.7,23.1,-003.2,0013.28,0008.40,0007.97
